Home   Weather   Columbus Plaza   Past weeks
Flag for USA

Past Weather in Columbus Plaza, District of Columbia, USA — Yesterday and Last 2 Weeks

Now
57 °F

Low clouds.


Feels Like: 54 °F
Forecast: 66 / 52 °F
Wind: 15 mph from North

Location: Reagan National Airport

Current Time: Oct 20, 2019 at 8:32:28 pm

Latest Report: Oct 20, 2019 at 7:52 pm


Visibility: 10 mi

Pressure: 29.92 "Hg

Humidity: 93%

Dew Point: 55 °F

Location of Columbus PlazaLocation

Past Weather in Columbus Plaza — Graph

°F

Columbus Plaza Temperature Yesterday

Maximum temperature yesterday: 65 °F (at 1:52 pm)
Minimum temperature yesterday: 44 °F (at 6:52 am)
Average temperature yesterday: 56 °F

High & Low Weather Summary for the Past Weeks

 TemperatureHumidityPressure
High84 °F (Oct 7, 1:52 pm)97% (Oct 20, 10:52 am)30.33 "Hg (Oct 20, 10:52 am)
Low44 °F (Oct 19, 6:52 am)27% (Oct 14, 2:52 pm)29.51 "Hg (Oct 16, 4:52 pm)
Average62 °F65%30.04 "Hg
* Reported Oct 5 6:52 pm — Oct 20 6:55 pm, Columbus Plaza. Weather by CustomWeather, © 2019

Note: Actual official high and low records may vary slightly from our data, if they occured in-between our weather recording intervals... More about our weather records

Advertising

Columbus Plaza Weather History for the Previous 24 Hours

Scroll right to see more
 ConditionsComfort  
Time TempWeatherWind HumidityBarometerVisibility
6:55 pm
Sun, Oct 20
57 °FLight rain. Mostly cloudy.15 mph93%29.90 "Hg10 mi
6:12 pm57 °FLight rain. Fog.14 mph96%29.89 "Hg3 mi
5:52 pm57 °FRain. Fog.17 mph96%29.88 "Hg2 mi
5:37 pm57 °FLight rain. Fog.15 mph96%29.88 "Hg2 mi
4:52 pm58 °FLight rain. Fog.15 mph93%29.87 "Hg3 mi
4:36 pm58 °FRain. Fog.18 mph93%29.87 "Hg2 mi
4:10 pm58 °FRain. Fog.17 mph93%29.87 "Hg2 mi
3:52 pm58 °FLight rain. Fog.17 mph93%29.86 "Hg2 mi
3:25 pm58 °FLight rain. Fog.18 mph93%29.85 "Hg2 mi
2:52 pm58 °FRain. Fog.16 mph93%29.85 "Hg2 mi
2:07 pm57 °FRain. Fog.18 mph93%29.85 "Hg2 mi
1:52 pm57 °FLight rain. Fog.17 mph93%29.86 "Hg6 mi
1:29 pm56 °FRain. Fog.16 mph93%29.87 "Hg3 mi
12:52 pm56 °FRain. Fog.17 mph93%29.90 "Hg2 mi
12:35 pm56 °FHeavy rain. Fog.15 mph93%29.91 "Hg2 mi
11:52 am56 °FHeavy rain. Fog.18 mph97%29.93 "Hg4 mi
11:15 am56 °FRain. Fog.16 mph97%29.95 "Hg4 mi
10:52 am56 °FLight rain. Fog.14 mph97%29.95 "Hg5 mi
10:06 am56 °FRain. Fog.12 mph93%29.97 "Hg3 mi
9:52 am55 °FRain. Fog.10 mph96%29.98 "Hg2 mi
9:43 am55 °FHeavy rain. Fog.9 mph96%29.98 "Hg2 mi
9:38 am55 °FHeavy rain. Fog.10 mph96%29.98 "Hg2 mi
8:52 am55 °FRain. Fog.10 mph93%29.97 "Hg4 mi
8:36 am55 °FRain. Fog.9 mph96%29.97 "Hg4 mi
7:52 am55 °FRain. Fog.9 mph96%29.97 "Hg5 mi
6:52 am56 °FLight rain. Fog.5 mph93%29.97 "Hg6 mi
5:52 am57 °FLight rain. Overcast.No wind83%29.98 "Hg8 mi
4:52 am58 °FLight rain. Overcast.No wind78%29.96 "Hg10 mi
3:52 am58 °FOvercast.5 mph78%29.96 "Hg10 mi
2:52 am57 °FOvercast.5 mph78%29.98 "Hg10 mi
1:52 am56 °FMostly cloudy.5 mph81%30.00 "Hg10 mi
12:52 am57 °FPassing clouds.6 mph78%30.01 "Hg10 mi
11:52 pm
Sat, Oct 19
57 °FMostly cloudy.5 mph72%30.02 "Hg10 mi
10:52 pm58 °FOvercast.3 mph67%30.02 "Hg10 mi
9:52 pm58 °FHigh level clouds.6 mph67%30.02 "Hg10 mi
8:52 pm59 °FOvercast.5 mph64%30.02 "Hg10 mi
Weather by CustomWeather, © 2019

See weather overview